Regional Weather Roundup
Issued by NWS

Home | Current Version | Previous Version | Text Only | Print | Product List | Glossary On
Versions: 1 2 3 4 5 6 7 8 9 10 11 12 13 14 15 16 17 18 19 20 21 22 23 24 25 26 27 28 29 30 31 32 33 34 35 36 37 38 39 40 41 42 43 44 45 46 47 48 49 50
000
ASUS46 KSTO 270109
RWRCA

NORTHERN AND CENTRAL CA REGIONAL WEATHER ROUNDUP
NATIONAL WEATHER SERVICE SACRAMENTO CA
500 PM PST SUN FEB 26 2017

NOTE: FAIR INDICATES FEW OR NO CLOUDS BELOW 12,000 FEET WITH NO
SIGNIFICANT WEATHER AND/OR OBSTRUCTIONS TO VISIBILITY.

CAZ001-003-270200-
NORTHWEST AREA

CITY           SKY/WX    TMP DP  RH WIND       PRES   REMARKS
CRESCENT CITY  PTSUNNY   46  37  71 W3        29.87S
ARCATA         NOT AVBL
SHELTER COVE   NOT AVBL
UKIAH          PTSUNNY   46  38  73 NW5       29.90S
$$

CAZ006-505>513-270200-
BAY AREA

CITY           SKY/WX    TMP DP  RH WIND       PRES   REMARKS
SANTA ROSA     CLOUDY    50  38  63 W10G21    29.89S
SAN RAFAEL     N/A       56  MM  MM MISG
NAPA           CLOUDY    52  41  66 W13       29.91S
CONCORD        PTSUNNY   54  39  57 SW14      29.92R
OAKLAND CITY   N/A      MM  MM  MM MISG
OAKLAND        PTSUNNY   53  44  71 W21       29.93F
SAN FRAN CITY  N/A       50  MM  77 MISG
SAN FRAN ARPT  PTSUNNY   53  43  68 W14       29.93F
LIVERMORE      MOSUNNY   53  37  54 W16       29.91S
HAYWARD        PTSUNNY   54  39  57 W14       29.93S
REDWOOD CITY   N/A       MM  MM  MM MISG
MOFFETT ARPT   MOSUNNY   55  39  54 W10G18    29.93S
SAN JOSE ARPT  PTSUNNY   54  38  54 W16       29.92S
$$
CAZ034-037-514>518-270200-
CENTRAL COAST

CITY           SKY/WX    TMP DP  RH WIND       PRES   REMARKS
WATSONVILLE    SUNNY     52  43  71 SW14G22   29.93F
SALINAS        MOSUNNY   54  37  52 W9        29.94S
MONTEREY       MOSUNNY   53  38  56 W10       29.95S
PT PIEDRAS BLS NOT AVBL
SAN LUIS OBISP CLOUDY    53  43  68 NW12      29.95S
SANTA MARIA    CLOUDY    51  45  79 NW9       29.95R
$$
CAZ015-016-270200-
NORTHERN SACRAMENTO VALLEY

CITY           SKY/WX    TMP DP  RH WIND       PRES   REMARKS
REDDING        MOCLDY    51  34  52 S10       29.77F
RED BLUFF      MOCLDY    53  36  52 W8        29.79F
OROVILLE       CLOUDY    54  36  50 S14       29.83F
$$
CAZ016>018-270200-
SOUTHERN SACRAMENTO VALLEY

CITY           SKY/WX    TMP DP  RH WIND       PRES   REMARKS
AUBURN         CLOUDY    48  32  53 S13       29.86F
BEALE AFB      CLOUDY    54  40  57 S18       29.82F
LINCOLN        FAIR      54  36  50 S15       29.85F
MARYSVILLE     CLOUDY    55  39  54 S15       29.84F
SAC INTL ARPT  MOCLDY    54  39  57 S20       29.86F
MATHER AIRPORT NOT AVBL
DOWNTOWN SAC   N/A       55  MM  MM MISG
SAC EXEC ARPT  MOCLDY    54  40  59 SW13G24   29.88F
VACAVILLE      MOSUNNY   54  38  54 W21       29.89F
TRAVIS AFB     MOSUNNY   53  38  56 W23       29.87F
$$
CAZ019>021-270200-
SAN JOAQUIN VALLEY

CITY           SKY/WX    TMP DP  RH WIND       PRES   REMARKS
STOCKTON       CLOUDY    56  38  50 W10       29.89S
MODESTO        MOCLDY    58  35  42 SW5       29.89F
MERCED         CLEAR     55  36  48 S6        29.89F
LEMOORE        PTCLDY    54  39  57 SE3       29.91F
FRESNO         MOCLDY    56  35  45 SW6       29.91F
HANFORD        PTCLDY    54  37  52 S5        29.92F
PORTERVILLE    PTCLDY    52  41  66 W7        29.92F
BAKERSFIELD    CLOUDY    56  39  53 NW3       29.91S
$$
CAZ011-012-071-270200-
NORTHERN MOUNTAINS

CITY           SKY/WX    TMP DP  RH WIND       PRES   REMARKS
YREKA          CLOUDY    36  31  82 SW7       29.74R WCI  30
MOUNT SHASTA   LGT SNOW  32  29  88 CALM      29.70S FOG
ALTURAS        PTCLDY    33  22  63 SW18      29.66F WCI  22
$$
CAZ011-012-071-270200-
SIERRA NEVADA MTNS

CITY           SKY/WX    TMP DP  RH WIND       PRES   REMARKS
BLUE CANYON    CLOUDY    29  24  82 SW8G18    29.78F WCI  21
TRUCKEE        CLOUDY    28  19  69 SW18G28   29.71F WCI  16
TAHOE VLY ARPT MOCLDY    30  17  58 S16G26    29.71S WCI  19
MAMMOTH LAKES  FAIR      30  12  46 S9G17     29.73F WCI  22
$$




USA.gov is the U.S. government's official web portal to all federal, state and local government web resources and services.